Weather History for KUNV - January, 2013

Change the Weather History Date:

Thursday, January 17, 2013

  Actual Average Record
Temperature  
Mean Temperature 32 °F -  
Max Temperature 33 °F 32 °F 59 °F (1990)
Min Temperature 30 °F 13 °F -17 °F (1982)
Degree Days  
Heating Degree Days 34    
Moisture  
Dew Point 25 °F    
Average Humidity 74    
Maximum Humidity 80    
Minimum Humidity 69    
Precipitation  
Precipitation 0.00 in - - ()
Sea Level Pressure  
Sea Level Pressure 30.01 in    
Wind  
Wind Speed 8 mph (WSW)    
Max Wind Speed 16 mph    
Max Gust Speed 22 mph    
Visibility 10 miles    
Events      
Averages and records for this station are not official NWS values.
T = Trace of Precipitation, MM = Missing Value Source: NWS Daily Summary

Daily Weather History Graph

Daily Weather History Graph

Search for Another Location

Airport or City:

Trip Planner

Search our weather history database for the weather conditions in past years. The results will help you decide how hot, cold, wet, or windy it might be!

Date:

Astronomy

Jan. 17, 2013 Rise Set
Actual Time 7:32 AM EST 5:10 PM EST
Civil Twilight 7:02 AM EST 5:40 PM EST
Nautical Twilight 6:28 AM EST 6:14 PM EST
Astronomical Twilight 5:56 AM EST 6:47 PM EST
Moon 10:35 AM EST (1/17) No Moon Set
Length of Visible Light 10h 38m
Length of Day
9h 38m
Waxing Crescent, 37% of the Moon is Illuminated
Jan 17
Waxing Crescent
Jan 18
First Quarter
Jan 26
Full
Feb 3
Last Quarter
Feb 10
New

Hourly Weather History & Observations

Time (EST) Temp. Windchill Dew Point Humidity Pressure Visibility Wind Dir Wind Speed Gust Speed Precip Events Conditions
12:15 AM 31.1 °F 25.4 °F 25.2 °F 79% 29.92 in 10.0 mi SSW 5.8 mph - N/A   Clear
12:35 AM 30.7 °F 24.1 °F 24.6 °F 78% 29.93 in 10.0 mi SW 6.9 mph - N/A   Clear
12:55 AM 31.1 °F 23.7 °F 24.8 °F 77% 29.94 in 10.0 mi WSW 8.1 mph - N/A   Clear
1:15 AM 31.1 °F 24.5 °F 24.8 °F 77% 29.95 in 10.0 mi SW 6.9 mph - N/A   Clear
1:35 AM 31.1 °F 24.5 °F 24.8 °F 77% 29.96 in 10.0 mi SW 6.9 mph - N/A   Clear
1:55 AM 31.6 °F 24.4 °F 24.8 °F 76% 29.96 in 10.0 mi WSW 8.1 mph - N/A   Clear
2:15 AM 32.0 °F 23.6 °F 24.4 °F 74% 29.96 in 10.0 mi WSW 10.4 mph - N/A   Clear
2:35 AM 32.0 °F 23.6 °F 24.1 °F 73% 29.96 in 10.0 mi West 10.4 mph 16.1 mph N/A   Clear
2:55 AM 32.0 °F 23.6 °F 24.3 °F 73% 29.96 in 10.0 mi WSW 10.4 mph - N/A   Mostly Cloudy
3:15 AM 32.0 °F 24.8 °F 24.4 °F 74% 29.97 in 10.0 mi WSW 8.1 mph - N/A   Overcast
3:35 AM 32.0 °F 24.8 °F 24.4 °F 74% 29.97 in 10.0 mi West 8.1 mph - N/A   Overcast
3:55 AM 32.0 °F 22.5 °F 24.4 °F 74% 29.97 in 10.0 mi West 12.7 mph 16.1 mph N/A   Overcast
4:15 AM 32.0 °F 24.2 °F 24.8 °F 75% 29.98 in 10.0 mi West 9.2 mph 16.1 mph N/A   Overcast
4:35 AM 32.0 °F 24.2 °F 25.3 °F 76% 29.98 in 10.0 mi West 9.2 mph 18.4 mph N/A   Overcast
4:55 AM 32.0 °F 23.6 °F 25.3 °F 76% 30.00 in 10.0 mi WSW 10.4 mph 21.9 mph N/A   Overcast
5:15 AM 32.0 °F 24.8 °F 25.3 °F 76% 30.00 in 10.0 mi WSW 8.1 mph 18.4 mph N/A   Overcast
7:53 AM 32.0 °F 24.2 °F 24.8 °F 75% 30.04 in 10.0 mi West 9.2 mph - N/A   Overcast
8:53 AM 32.0 °F 24.8 °F 24.8 °F 75% 30.08 in 10.0 mi West 8.1 mph - N/A   Overcast
9:53 AM 32.0 °F 24.2 °F 24.8 °F 75% 30.12 in 7.0 mi West 9.2 mph - N/A   Overcast
10:53 AM 32.0 °F 24.8 °F 26.6 °F 80% 30.11 in 7.0 mi West 8.1 mph - N/A   Overcast
11:53 AM 33.8 °F 27.0 °F 26.6 °F 75% 30.07 in 7.0 mi West 8.1 mph - N/A   Overcast
12:53 PM 33.8 °F 28.6 °F 24.8 °F 70% 30.04 in 7.0 mi WSW 5.8 mph - N/A   Overcast
1:40 PM 33.8 °F 28.6 °F 24.8 °F 70% 30.05 in 7.0 mi WSW 5.8 mph - N/A   Mostly Cloudy
1:53 PM 33.8 °F 27.7 °F 24.8 °F 70% 30.06 in 8.0 mi SW 6.9 mph - N/A   Overcast
2:53 PM 33.8 °F 27.7 °F 24.8 °F 70% 30.03 in 10.0 mi WSW 6.9 mph - N/A   Overcast
3:53 PM 33.8 °F 29.6 °F 24.8 °F 70% 30.04 in 10.0 mi WSW 4.6 mph - N/A   Overcast
4:53 PM 32.0 °F 23.0 °F 24.8 °F 75% 30.05 in 10.0 mi WSW 11.5 mph - N/A   Mostly Cloudy
5:53 PM 32.0 °F 26.4 °F 24.8 °F 75% 30.07 in 10.0 mi WSW 5.8 mph - N/A   Mostly Cloudy
6:53 PM 32.0 °F 26.4 °F 23.0 °F 69% 30.07 in 10.0 mi West 5.8 mph - N/A   Mostly Cloudy
7:53 PM 32.0 °F 26.4 °F 23.0 °F 69% 30.07 in 10.0 mi WSW 5.8 mph - N/A   Mostly Cloudy
8:53 PM 32.0 °F 26.4 °F 24.8 °F 75% 30.05 in 10.0 mi WSW 5.8 mph - N/A   Mostly Cloudy
9:55 PM 32.0 °F 21.2 °F 25.2 °F 76% 30.04 in 10.0 mi West 16.1 mph 19.6 mph N/A   Clear
10:15 PM 32.0 °F 22.1 °F 24.8 °F 75% 30.04 in 10.0 mi West 13.8 mph - N/A   Clear
10:35 PM 32.0 °F 21.6 °F 24.6 °F 74% 30.03 in 10.0 mi West 15.0 mph 19.6 mph N/A   Clear
10:55 PM 32.0 °F 22.5 °F 23.9 °F 72% 30.03 in 10.0 mi West 12.7 mph - N/A   Clear